RH
46 46 52 63 63 60 70 74 64 60 62 61 57 49 43 39 38 38 39 41 43 45 48 50 50 50 49 48 48 49 49 49 50 50 50 50 49 46 42 36 32 29 26 23 20 18 16 14 13 13 12 12 11 10 10 10 9 9 9 9 8 8 7 6 6 5 6 6 6 6 6 6 6 5 5 5 6 6 7 8 9 8 8 8 7
43 45 51 57 56 58 70 75 68 60 60 60 58 56 54 52 48 44 41 41 43 43 44 46 49 51 52 51 49 49 48 47 48 50 52 54 54 54 52 49 45 42 38 34 30 25 20 17 15 14 13 13 12 11 11 10 10 10 9 9 9 8 7 7 6 6 6 5 5 5 5 5 5 5 5 5 5 5 6 6 6 6 6 6 5
45 48 53 54 50 52 60 66 68 67 66 65 63 60 61 64 65 60 53 48 46 46 45 45 46 48 52 55 54 53 51 50 48 48 50 53 54 55 54 53 51 49 47 45 42 38 31 25 21 17 16 15 14 13 12 12 11 11 10 10 9 9 9 8 7 6 6 6 5 5 4 4 4 4 4 4 5 5 5 5 5 5 6 6 6
46 48 52 53 48 47 51 53 57 62 63 63 63 60 60 66 72 75 72 63 57 53 49 46 45 46 49 53 56 57 56 54 52 50 50 50 52 53 54 54 54 53 51 49 46 44 40 35 30 24 20 18 16 15 14 14 14 13 13 12 11 10 10 9 8 7 6 6 6 5 5 4 4 4 4 4 4 4 4 5 4 4 5 5 5
48 49 56 60 53 50 54 57 57 59 61 62 63 61 62 66 72 81 82 76 71 67 60 53 50 48 48 51 54 57 59 58 56 54 53 52 51 51 52 53 54 55 55 52 49 46 43 41 38 33 27 22 19 18 16 15 15 15 14 14 13 12 11 10 8 7 7 6 6 6 5 5 4 4 4 4 5 5 5 5 4 4 4 4 4
54 56 63 68 64 61 65 66 62 60 60 62 62 62 65 68 71 77 79 77 78 80 73 64 61 58 52 49 51 53 55 58 58 56 56 56 54 52 52 53 54 55 55 54 53 51 48 44 41 39 35 30 24 20 19 17 16 15 15 14 14 13 11 10 9 8 7 7 6 6 5 5 5 4 5 5 5 5 6 6 6 5 4 4 4
56 57 58 62 62 62 61 57 54 54 53 52 50 50 54 57 59 64 69 72 77 84 85 78 78 79 68 53 50 52 52 54 57 58 59 61 60 57 54 54 54 55 56 56 55 55 55 52 46 42 40 37 32 25 21 20 17 16 16 14 13 13 12 11 10 9 8 8 7 7 6 6 5 4 4 5 5 6 6 6 6 6 5 4 3
53 51 52 55 57 59 59 56 51 49 47 45 44 43 43 44 47 52 60 66 69 78 88 86 84 86 75 59 52 51 49 49 54 60 62 65 67 64 61 61 60 60 61 59 58 58 59 57 52 47 43 39 37 32 26 23 21 18 18 16 14 13 12 11 11 10 10 9 8 8 7 7 6 5 5 4 4 5 5 5 5 5 5 4 3
41 40 43 48 51 56 60 58 51 45 42 41 40 40 39 39 41 44 52 59 61 68 77 75 77 84 79 73 73 70 63 60 63 67 67 67 70 69 67 68 67 67 67 64 62 62 62 61 56 51 47 40 36 35 30 25 22 20 19 18 16 15 13 12 12 11 10 10 9 8 8 7 6 6 5 5 4 4 4 4 4 4 4 3 3
38 38 39 41 42 44 46 44 40 36 34 34 33 33 32 31 32 32 37 47 55 61 62 58 70 85 82 78 80 79 76 76 77 80 77 73 73 72 71 70 66 62 63 65 64 59 60 63 59 53 52 47 38 36 35 30 26 23 21 19 18 16 15 14 13 12 11 10 9 9 8 8 7 6 5 5 5 4 4 4 4 4 3 3 2
44 43 43 44 44 44 43 43 42 39 36 34 30 28 25 23 22 21 24 32 41 51 58 59 66 77 79 74 73 72 74 79 84 88 84 78 76 73 68 64 59 53 54 60 58 50 53 64 63 55 55 55 46 38 36 34 30 26 23 21 19 17 16 15 14 13 12 11 10 10 9 8 8 7 6 5 5 5 5 5 4 5 5 4 4
42 41 42 43 42 43 43 44 46 47 47 42 34 28 25 22 20 17 17 21 28 41 58 65 67 71 73 71 70 72 78 86 90 90 85 81 79 75 66 60 56 53 51 50 48 48 56 67 70 62 58 60 55 45 39 36 33 29 26 23 21 19 17 16 15 14 13 13 12 11 10 10 9 8 7 6 5 5 5 6 6 6 6 6 6
35 36 36 35 35 36 36 35 36 37 37 36 31 25 23 21 19 17 15 15 19 30 45 61 72 77 76 73 74 78 81 86 88 88 85 80 77 76 71 63 56 51 46 43 46 57 67 72 75 70 64 63 58 48 43 41 37 33 30 27 24 22 19 18 16 15 14 13 12 12 11 10 9 8 8 7 6 5 5 6 7 7 7 8 8
31 31 31 30 29 29 27 27 27 25 24 23 21 20 19 17 17 17 16 15 17 22 32 50 67 75 74 77 82 83 86 91 91 88 83 75 74 79 74 61 51 45 41 43 52 65 71 73 76 75 70 65 58 48 44 43 40 37 34 32 29 27 24 22 21 20 18 16 14 13 11 10 10 9 8 7 6 6 5 5 6 7 7 7 7
28 27 26 25 24 23 22 20 18 17 16 14 13 12 12 11 12 14 16 19 21 24 30 42 56 66 73 80 84 88 97 104 100 90 80 76 78 77 64 51 44 39 39 50 63 70 73 75 78 77 72 66 57 49 45 43 40 37 35 34 32 31 29 27 25 24 22 19 16 14 12 10 9 9 8 8 7 6 6 5 5 7 7 7 7
27 26 25 24 22 21 20 18 16 15 13 10 10 9 7 7 8 9 12 16 21 28 34 40 48 59 72 85 92 95 97 95 90 84 81 83 80 66 51 45 40 36 45 63 73 74 74 76 77 74 71 65 55 48 43 40 38 36 34 32 31 30 28 26 24 22 19 17 15 13 11 10 9 8 7 7 7 7 6 6 5 6 7 6 7
26 25 23 22 20 19 17 15 14 12 10 9 8 7 6 6 5 6 9 12 17 25 34 40 44 50 63 79 91 95 92 88 86 85 85 86 78 57 45 43 40 45 60 73 76 74 74 74 72 68 65 60 53 45 39 35 32 31 29 28 27 26 24 22 20 18 16 15 13 11 10 9 8 8 7 7 7 7 6 6 6 7 7 7 7
27 25 23 20 18 16 14 11 9 8 7 6 5 4 5 4 4 7 9 11 15 22 32 39 39 42 54 72 85 92 93 89 85 85 87 88 74 52 43 48 55 65 74 76 74 73 68 64 59 54 50 46 42 37 32 28 27 26 25 24 23 22 20 18 17 16 14 13 12 11 10 10 9 8 8 7 8 8 7 7 7 8 7 7 7
31 28 26 23 19 16 12 10 9 7 5 5 4 4 3 3 5 7 10 17 21 24 30 36 38 46 63 76 78 81 87 88 86 88 90 82 63 49 52 67 76 78 75 69 64 59 53 48 44 40 38 36 33 30 28 25 24 23 22 21 20 19 18 16 16 15 14 13 12 11 10 10 9 8 8 8 8 8 9 8 9 9 8 8 9
33 31 28 25 21 18 15 13 12 9 7 6 4 3 4 5 7 9 15 26 32 32 31 31 39 57 72 79 78 79 88 95 95 94 87 69 55 58 72 83 81 72 63 56 51 46 42 39 37 35 34 33 29 27 26 24 22 21 19 19 18 17 16 15 14 14 13 12 12 11 10 10 9 9 9 9 9 9 10 10 10 11 10 9 10
34 31 29 25 22 18 15 14 12 9 8 7 5 8 11 14 13 12 17 26 32 35 31 30 44 59 58 63 78 85 89 97 101 96 83 65 63 76 85 82 74 63 56 52 46 43 40 36 33 32 31 29 27 24 23 21 20 19 17 16 16 15 14 14 13 12 12 11 11 11 11 11 11 11 12 12 14 14 14 14 14 14 15 15 14
33 31 28 23 21 19 15 14 12 10 10 9 10 14 16 17 17 16 21 28 30 31 33 44 67 78 68 71 88 92 90 97 102 97 85 75 80 89 85 74 66 59 54 49 43 39 36 32 30 28 26 24 23 21 20 19 18 17 16 15 14 14 13 12 11 11 11 11 11 11 12 13 14 15 16 17 19 21 21 20 19 19 20 20 21
31 28 25 22 20 18 16 14 12 12 12 11 13 16 16 17 19 19 24 28 26 31 49 66 80 87 87 91 97 93 91 98 100 97 93 90 90 87 75 66 63 56 49 45 39 34 31 28 25 23 22 21 19 19 18 17 16 15 15 14 13 12 12 11 11 11 11 11 11 11 13 16 18 20 22 23 25 26 26 26 25 25 26 27 28
25 24 23 21 19 18 17 14 13 17 18 14 13 15 16 19 23 25 30 32 30 43 69 81 82 89 97 100 99 94 95 100 99 95 92 89 84 77 69 63 57 49 42 36 31 27 25 22 21 20 19 19 18 18 17 16 16 15 15 15 15 14 14 13 13 13 13 13 14 15 18 23 26 28 31 32 32 32 33 33 35 37 38 39 39
22 22 21 20 19 19 15 12 15 22 22 17 14 14 17 25 28 29 37 46 54 69 84 87 89 97 100 97 97 99 100 100 95 86 81 78 74 68 62 55 45 38 32 26 23 22 20 20 20 20 20 20 19 19 19 19 19 18 18 19 19 18 18 18 17 17 16 16 18 21 26 32 37 39 41 43 43 44 46 48 51 53 53 52 50
23 22 21 20 20 18 15 14 19 23 21 17 15 15 21 28 29 33 50 67 76 84 91 94 97 99 98 97 99 100 96 91 84 77 72 69 63 56 48 40 32 27 23 20 20 20 20 21 22 21 22 24 23 24 25 25 26 26 26 26 26 26 25 24 23 22 22 24 28 34 41 48 51 53 54 55 56 58 62 67 68 68 70 69 63
22 19 19 22 23 24 25 23 21 21 20 17 16 19 26 29 30 45 72 87 83 79 85 95 99 97 98 100 98 92 86 82 76 68 61 54 48 42 34 27 22 21 20 20 21 21 22 24 25 27 28 30 31 32 32 32 33 33 33 32 32 32 32 31 32 31 32 39 48 55 61 64 65 67 69 71 72 75 82 87 87 87 91 90 83
17 17 23 28 29 34 37 32 23 18 17 18 20 25 30 31 37 58 84 92 86 83 88 96 101 99 99 99 93 85 79 72 64 56 48 41 35 29 24 22 22 22 22 22 22 23 25 27 30 33 34 36 38 39 39 39 38 37 37 37 37 37 38 39 40 42 48 60 68 72 74 77 79 84 88 90 91 93 96 98 97 97 99 98 95
25 27 29 31 37 45 49 45 32 21 28 44 46 35 33 42 54 74 93 97 94 96 98 98 98 97 95 92 85 76 66 58 51 44 37 31 27 25 24 26 26 25 24 24 24 26 28 31 35 39 41 42 43 44 45 46 46 45 45 45 44 46 48 48 50 56 66 75 78 78 82 89 93 96 99 99 99 99 100 100 100 100 101 100 99
33 33 32 38 52 62 65 61 48 41 60 84 74 45 44 66 80 88 96 98 96 96 97 95 94 93 88 81 72 63 55 47 41 34 29 28 28 29 31 31 30 29 27 26 26 28 32 38 43 46 48 50 51 52 53 55 56 55 55 55 55 56 58 60 64 72 78 81 81 84 90 96 98 99 99 100 100 100 99 96 94 93 93 93 95
39 44 50 60 68 72 73 71 65 64 76 85 67 46 54 79 93 96 98 98 97 96 94 91 87 82 75 67 60 53 45 37 33 31 31 34 34 35 35 34 34 33 30 28 30 34 39 46 50 52 54 57 59 62 64 65 66 67 67 67 68 68 70 74 79 84 84 82 83 87 92 95 98 100 100 99 97 94 91 88 86 84 81 80 81
61 68 76 81 83 87 85 78 77 83 83 75 68 67 73 83 95 101 99 98 98 95 87 80 74 68 63 57 50 43 36 33 36 38 38 38 38 37 38 38 37 36 33 30 32 36 43 50 53 55 59 62 65 69 71 72 73 75 76 77 79 81 84 86 87 87 83 81 83 87 91 97 99 98 95 91 88 85 84 85 85 82 78 76 77
87 89 91 91 94 97 89 78 83 95 92 84 85 89 89 92 98 98 93 90 89 81 72 68 63 58 52 45 39 37 39 41 41 39 37 38 38 38 40 42 43 40 35 31 32 38 46 53 56 59 64 69 72 75 77 77 79 81 85 87 87 89 93 94 92 89 86 83 83 83 89 98 100 92 85 83 82 81 80 81 82 80 80 83 85
98 98 97 98 98 94 85 82 90 95 93 92 95 95 95 98 97 90 83 79 74 66 62 60 55 47 43 41 42 45 46 40 34 32 33 36 37 39 41 45 45 41 35 31 33 40 49 56 61 65 70 75 78 79 79 82 85 88 92 95 94 95 98 99 97 94 92 90 87 85 90 99 98 89 82 82 84 85 85 85 86 88 91 92 90
100 99 100 100 98 92 87 89 93 92 92 97 101 99 98 98 93 85 80 75 69 62 56 51 47 45 46 49 49 44 35 27 23 24 27 30 34 41 46 47 46 41 35 31 33 41 53 61 66 70 75 79 82 84 86 89 92 95 97 99 98 99 100 99 99 99 97 94 91 91 96 100 95 87 84 86 90 93 93 92 93 95 97 95 91
100 101 99 96 95 95 96 95 95 96 98 100 100 96 92 89 87 84 79 72 63 56 51 50 52 54 52 47 39 28 21 20 19 18 20 24 33 43 46 45 44 41 34 30 33 44 57 65 68 73 79 83 86 91 94 97 98 99 99 100 99 100 100 99 100 100 99 95 92 92 97 99 93 87 88 92 96 99 99 98 98 99 99 98 95
100 98 94 92 95 99 101 98 97 100 101 99 96 91 86 83 80 74 67 60 55 54 55 56 55 51 42 33 24 17 16 17 15 14 16 21 31 41 42 42 44 42 32 28 35 48 60 67 71 77 83 88 92 96 98 99 99 99 99 100 99 99 100 100 99 99 100 99 97 97 99 99 95 92 94 97 100 100 99 99 100 100 99 100 98
99 98 96 96 98 100 99 99 100 101 97 92 89 85 79 75 70 64 61 61 61 59 57 51 43 35 27 20 15 14 14 14 14 14 15 18 27 37 42 45 47 41 30 27 37 52 64 71 76 82 89 93 95 98 99 99 99 99 99 99 100 100 100 100 100 100 99 100 99 99 100 100 98 98 99 100 100 99 98 99 100 99 99 100 99
100 100 99 98 99 99 99 100 98 94 90 86 82 77 70 66 66 66 67 64 57 50 42 34 26 22 18 14 13 13 12 12 12 14 15 19 27 38 45 49 48 40 28 27 40 57 69 75 81 89 95 96 96 98 99 99 99 100 100 99 100 100 100 99 100 100 100 100 100 99 98 97 96 97 98 99 100 100 99 99 100 100 99 100 100
100 100 99 99 100 100 99 97 93 88 85 80 73 70 69 70 72 71 63 53 44 35 27 22 19 17 15 14 14 13 11 11 11 12 15 20 29 39 48 52 49 37 25 28 45 63 73 79 86 94 98 98 98 99 100 99 99 100 100 99 99 100 100 100 100 99 98 96 94 91 89 89 91 95 98 100 100 100 100 100 100 100 100 100 100
100 100 100 100 100 98 97 95 91 86 81 74 70 73 76 77 75 69 57 45 37 30 23 20 18 16 15 14 12 11 11 11 10 11 13 18 28 40 50 54 49 33 23 32 53 69 76 83 92 98 100 99 99 99 99 99 100 100 100 100 100 100 100 99 99 99 95 89 87 86 87 90 95 98 100 100 99 100 100 100 100 100 100 100 100
100 100 100 100 100 99 98 95 90 83 76 72 73 76 78 77 74 68 57 44 34 27 22 19 16 14 13 13 12 11 11 10 10 11 13 19 28 40 51 57 49 29 22 38 62 75 80 87 95 100 100 99 99 100 99 100 100 99 100 100 99 100 100 99 100 99 93 87 88 92 93 94 97 100 99 99 100 100 100 100 99 100 100 100 100
97 99 100 99 99 99 96 91 86 80 75 74 75 76 77 76 72 63 50 37 29 24 19 17 16 14 13 13 12 11 11 11 11 11 15 21 30 39 52 60 48 25 23 47 71 78 83 91 98 101 101 100 99 100 100 99 100 100 100 100 100 100 100 99 100 100 95 91 95 99 97 94 97 100 99 99 100 100 100 100 100 100 100 100 100
97 99 100 100 100 98 92 87 83 80 79 81 81 78 75 70 61 48 36 27 22 20 18 16 15 14 13 12 12 11 11 12 11 12 15 23 32 40 54 62 46 22 25 55 76 79 83 93 99 100 100 99 99 100 99 99 100 100 99 100 100 99 100 100 100 100 98 95 98 100 96 91 94 98 99 99 100 100 99 100 100 100 100 100 99
97 98 99 100 99 95 89 85 85 84 83 83 81 75 67 56 43 32 25 21 19 18 16 15 14 13 13 13 12 12 11 11 12 12 14 21 31 42 56 62 44 20 27 59 78 79 83 93 98 99 99 99 99 100 99 99 100 100 99 100 100 99 100 100 99 100 100 98 98 100 97 91 91 94 95 97 99 100 100 100 100 99 98 98 99
93 98 101 99 95 91 89 87 86 85 82 78 72 62 51 39 29 23 20 19 18 16 15 14 13 12 13 12 11 12 12 11 12 13 13 17 29 43 57 62 43 20 27 59 78 78 82 91 95 96 98 98 98 99 100 99 100 100 99 100 100 99 100 100 99 100 100 99 98 100 99 94 92 93 94 95 97 99 99 99 97 95 94 96 99
85 93 99 98 92 90 90 90 88 86 81 72 60 46 34 27 23 22 19 17 15 14 14 14 13 12 12 12 11 12 11 10 12 12 10 14 26 41 56 62 44 21 26 58 77 77 81 88 91 92 97 98 98 99 100 99 100 100 99 100 100 99 99 100 100 100 100 99 99 99 98 96 97 98 97 97 99 98 96 93 89 89 92 96 99
83 90 93 93 90 89 90 89 85 79 70 56 42 32 26 25 26 25 23 21 19 17 15 14 13 12 12 11 10 11 10 10 11 11 8 11 24 39 55 63 48 23 24 53 75 78 80 85 86 88 95 98 98 99 100 99 100 101 99 99 100 100 99 100 100 99 99 100 100 98 94 95 99 101 99 99 100 99 97 92 86 86 91 95 95
69 79 83 85 86 86 86 82 72 60 47 36 29 27 28 30 31 30 29 29 27 24 21 19 16 15 13 11 10 11 10 8 10 10 7 11 23 37 52 63 54 27 20 44 70 78 79 82 83 85 91 97 99 100 100 100 100 100 100 99 100 100 99 100 100 99 99 100 100 97 93 93 98 100 100 99 97 96 98 98 92 89 90 91 89
37 47 58 66 70 71 68 61 50 40 32 27 27 29 31 32 33 32 32 31 30 28 27 25 21 18 15 12 10 11 10 8 10 10 7 10 21 34 48 64 61 33 16 33 64 77 77 78 79 80 86 94 98 100 100 100 100 100 100 100 100 100 99 100 100 100 99 100 100 99 96 96 98 99 99 100 99 96 98 100 99 96 95 95 94
20 23 30 37 42 44 41 37 32 28 26 27 29 31 31 31 31 30 29 29 30 29 29 27 24 20 17 14 11 11 10 8 9 9 7 9 17 28 43 63 67 42 15 23 53 73 77 77 76 76 81 90 97 99 99 99 100 101 101 100 99 100 100 100 100 100 100 99 100 100 99 99 100 99 98 99 100 99 99 100 99 98 98 98 98
Wind_Speed
34 33 32 30 27 25 22 20 20 18 18 19 20 20 19 19 18 18 19 19 17 15 14 13 13 12 10 9 9 8 8 8 7 7 7 8 9 10 10 10 10 11 11 12 12 13 14 14 14 15 15 15 16 16 16 16 17 17 17 16 16 16 15 15 16 17 17 17 18 18 19 20 21 22 24 25 25 25 26 26 28 29 30 31 32
34 34 33 31 29 28 26 25 24 22 20 20 21 20 21 21 21 21 22 22 22 21 20 18 17 16 14 12 12 12 12 12 11 10 10 10 12 13 13 13 12 12 12 13 14 15 15 16 16 17 17 18 18 18 19 19 19 19 19 19 18 18 17 17 17 18 18 18 19 19 19 19 20 22 24 24 25 25 26 26 27 27 28 29 30
33 33 32 31 30 30 29 28 28 27 27 26 24 22 21 21 22 23 24 24 25 25 25 23 22 21 18 16 15 15 16 16 16 15 15 15 15 16 17 16 16 15 15 16 16 16 17 17 17 18 19 20 20 21 21 21 22 22 22 22 21 20 20 20 20 21 21 21 21 21 21 20 21 22 24 24 24 25 26 27 28 28 28 29 29
33 33 32 30 28 28 28 28 27 27 28 29 28 27 24 22 21 23 25 26 27 28 29 28 27 26 24 21 20 20 20 19 19 19 19 19 19 19 19 19 19 19 19 19 19 19 19 19 19 19 20 21 22 23 24 24 24 25 25 25 25 25 23 23 23 24 24 24 22 23 23 22 22 22 23 24 24 25 25 26 28 29 29 30 29
32 32 29 26 23 25 26 25 24 24 25 26 27 28 28 26 24 24 26 28 28 30 32 33 32 31 28 27 25 24 23 23 22 22 22 23 24 24 23 23 22 22 22 22 22 23 23 23 22 22 22 23 23 24 25 26 26 27 28 28 28 28 27 26 26 26 27 26 25 24 24 23 23 23 24 24 25 25 26 26 28 29 30 31 31
21 23 24 21 19 22 23 22 23 23 23 22 22 23 25 26 27 27 28 30 30 32 34 36 36 35 33 31 30 27 26 26 26 25 25 27 28 28 28 27 27 27 27 27 27 27 27 27 26 25 25 25 25 26 27 27 28 28 29 30 30 31 30 29 29 29 29 29 29 28 26 25 25 24 24 25 26 26 27 27 28 29 30 31 33
16 17 18 18 18 20 20 20 20 21 20 20 20 20 21 24 26 28 32 34 34 33 34 36 38 37 36 35 32 30 29 29 29 29 29 30 30 31 32 32 32 32 32 33 33 34 33 32 31 30 29 28 27 28 28 29 29 30 30 31 31 32 32 32 31 31 31 31 31 31 31 30 28 27 26 26 27 27 28 29 29 30 31 32 33
21 20 21 21 20 19 19 19 20 20 21 22 22 23 23 24 26 28 31 36 37 35 36 38 38 39 40 38 36 34 34 34 33 33 33 33 34 35 35 35 36 37 37 37 37 37 37 36 35 35 33 31 30 29 29 30 31 31 32 32 33 33 33 33 34 33 33 33 33 33 33 33 32 31 30 30 30 29 29 30 31 31 32 33 33
19 19 21 21 21 22 23 24 24 24 24 25 25 26 26 26 27 27 28 33 38 39 40 41 41 41 42 41 39 38 39 38 37 36 36 36 35 36 36 36 38 38 39 39 39 39 39 38 37 37 36 35 33 32 31 31 32 33 33 34 34 35 35 35 35 35 35 35 35 34 35 35 34 33 33 34 34 33 32 32 32 32 33 34 34
19 20 21 21 22 23 24 25 26 27 27 28 28 29 30 30 31 30 29 31 34 39 43 45 45 45 43 40 40 41 42 42 40 38 37 36 35 35 36 37 37 39 40 40 40 41 41 41 39 38 37 37 36 35 34 33 34 34 34 35 36 36 36 36 36 37 37 37 37 37 37 37 36 35 34 34 35 36 36 35 34 33 33 35 35
24 25 26 26 26 27 28 29 30 30 30 31 32 33 34 35 35 35 34 33 34 37 40 44 49 48 43 40 43 45 44 44 44 40 36 34 34 35 36 37 38 40 41 41 41 43 43 42 41 40 39 38 37 37 37 36 36 35 36 36 37 37 38 38 38 38 39 40 40 40 40 40 40 39 38 36 35 36 36 37 36 35 35 35 36
25 27 27 28 29 30 32 33 35 36 37 37 37 36 36 37 38 39 38 36 35 35 37 40 47 49 45 44 47 48 47 47 45 41 36 34 35 37 37 38 39 40 40 40 43 45 43 41 40 40 40 39 38 39 39 39 38 38 37 37 38 38 39 39 40 40 41 42 42 42 42 42 43 43 42 41 38 37 37 37 37 37 37 38 37
24 25 25 26 27 28 30 31 32 34 35 37 38 37 37 37 38 39 40 39 37 37 37 38 41 45 44 44 47 48 48 48 43 38 36 36 39 40 38 37 37 38 39 41 44 44 42 40 40 40 41 41 39 39 38 39 40 41 40 39 39 39 40 40 41 42 42 43 44 44 43 43 44 44 44 44 43 41 40 39 38 38 39 40 40
25 25 26 27 27 28 29 30 31 32 32 34 36 37 38 38 38 39 40 40 38 37 38 37 37 38 36 35 39 43 45 44 41 39 39 40 40 40 37 35 36 38 40 41 43 42 40 38 39 40 41 41 41 40 39 39 40 42 42 42 42 42 42 42 42 43 43 44 45 45 45 45 45 45 45 45 45 45 44 42 41 41 41 41 42
25 25 26 27 28 29 30 31 32 32 32 33 34 35 36 36 37 39 40 40 39 37 37 37 36 34 31 30 33 38 40 41 41 42 42 41 39 37 35 35 36 39 41 41 40 39 38 37 38 39 41 41 41 40 40 40 41 43 43 44 44 44 44 45 45 45 45 46 46 46 46 46 45 45 45 45 46 46 46 46 45 44 45 44 44
27 27 27 28 29 30 32 32 33 33 33 34 34 34 35 35 36 37 39 40 39 37 37 37 35 33 30 29 32 35 38 39 41 42 42 41 38 35 35 36 38 39 41 40 38 37 37 38 38 39 40 41 41 41 41 41 43 44 45 45 46 46 46 46 47 46 46 47 48 48 48 47 46 46 45 45 46 47 47 48 48 48 48 48 47
28 28 28 29 30 30 32 32 33 34 34 34 35 35 35 35 35 36 38 39 39 38 37 36 35 32 30 30 33 37 39 40 41 43 43 41 38 36 37 38 38 38 39 38 37 37 38 38 38 39 41 42 42 42 42 42 44 45 46 46 47 47 47 47 47 47 47 48 48 48 48 48 48 48 47 47 47 48 49 49 49 50 50 51 51
28 29 28 29 29 30 30 31 32 32 32 33 35 35 35 36 36 37 38 38 38 37 36 35 34 32 31 32 35 38 39 40 43 44 43 40 38 38 38 37 36 36 36 36 37 38 39 39 39 40 40 42 43 43 43 43 45 46 47 47 47 47 47 47 48 49 49 50 50 49 48 48 47 47 48 48 48 49 51 51 50 51 52 53 54
31 32 31 30 30 30 30 31 31 32 33 33 35 35 36 36 37 38 38 38 36 36 35 34 32 32 34 35 36 38 40 43 45 44 40 38 38 37 35 35 35 35 36 37 38 39 40 40 41 42 42 42 42 43 43 45 46 48 48 49 49 48 48 48 49 50 50 51 51 50 49 48 47 47 47 48 49 49 50 51 52 54 54 55 56
35 35 35 34 33 32 32 33 34 35 35 35 35 35 36 36 36 37 38 36 33 34 34 32 31 32 36 37 38 39 41 42 42 40 36 34 34 34 33 34 34 35 37 38 40 40 41 41 42 44 46 45 44 44 45 46 47 48 49 50 50 49 49 50 50 51 51 51 51 50 50 49 49 48 48 48 48 48 49 50 52 54 56 56 57
38 38 38 37 36 34 34 34 36 37 36 35 34 34 34 34 34 34 35 33 32 33 33 31 31 34 36 38 41 42 41 40 39 36 33 32 33 34 34 34 35 36 38 40 41 42 43 43 43 45 47 47 47 46 47 47 47 47 48 49 49 50 50 51 51 51 52 51 50 50 49 49 49 49 48 47 47 47 49 50 52 54 55 56 57
41 41 40 40 39 37 35 35 36 37 36 33 32 32 33 33 32 32 32 32 31 30 29 29 32 36 38 40 42 43 41 39 36 33 33 34 34 35 35 35 36 39 40 42 43 44 44 45 45 46 47 47 47 47 48 48 48 48 48 49 49 50 50 51 51 51 51 51 50 50 49 49 49 48 48 47 47 48 49 51 53 54 56 56 56
44 44 44 43 41 39 36 35 36 37 35 32 32 32 33 32 31 30 30 29 28 28 29 31 34 39 42 43 41 39 38 37 35 34 35 34 34 34 34 36 38 40 42 43 44 44 45 46 46 46 46 47 47 48 48 48 49 49 49 50 50 50 51 51 51 51 51 51 50 50 50 49 48 48 48 48 48 49 50 52 54 55 56 57 56
45 46 46 45 43 41 38 35 36 38 36 33 33 34 33 31 29 28 28 27 27 29 33 35 38 41 43 41 38 36 36 35 34 33 32 31 31 33 35 38 40 41 42 43 43 44 45 45 45 46 46 47 48 48 49 49 49 50 51 51 52 52 52 52 51 51 51 51 51 51 50 49 48 47 48 48 49 50 51 52 53 53 54 54 54
45 46 45 44 42 41 39 37 37 38 36 35 35 34 32 31 29 27 27 27 28 32 37 40 41 42 43 40 36 34 33 32 30 28 26 28 31 34 36 38 39 39 40 41 41 42 42 43 44 45 46 47 48 48 49 49 50 51 51 51 52 52 52 52 52 52 52 52 52 51 49 48 47 47 48 48 49 49 50 49 49 49 50 50 50
45 43 42 41 40 40 39 39 38 36 35 35 34 33 32 31 30 29 29 30 31 33 38 41 41 39 36 33 30 29 28 27 25 23 25 28 31 33 35 36 36 36 37 38 38 40 41 41 43 44 45 46 46 47 48 49 49 50 50 50 50 51 51 51 51 51 51 50 49 48 47 46 47 47 47 47 46 45 44 43 43 43 43 44 45
43 41 40 39 39 39 39 38 36 34 32 32 31 31 31 31 31 31 32 32 33 36 38 37 35 33 29 26 25 24 22 21 22 23 26 28 30 32 33 33 33 34 34 35 36 37 39 39 40 41 42 43 43 45 46 47 48 48 48 48 49 48 48 49 49 48 48 46 44 43 44 45 44 43 42 41 40 38 35 34 35 35 35 36 38
41 39 38 37 37 37 36 35 33 32 30 29 29 29 29 30 31 32 33 34 36 38 38 35 31 27 24 22 21 20 18 19 21 24 25 27 28 29 29 30 31 31 32 32 33 34 35 36 37 38 39 40 41 41 42 44 45 45 46 46 46 46 46 45 45 45 42 39 39 40 41 39 36 34 32 32 31 29 27 28 31 31 31 32 34
40 38 36 36 36 36 35 34 32 30 27 27 27 27 28 30 31 31 32 34 33 32 30 28 24 21 18 16 16 16 17 19 21 23 24 25 25 26 26 27 28 28 29 30 31 31 32 33 34 35 36 37 38 39 39 40 41 42 42 42 43 43 42 42 41 40 36 35 35 36 33 29 27 26 27 27 26 25 25 27 28 28 29 31 32
39 38 37 36 35 35 34 32 29 25 25 25 26 26 27 29 29 29 30 32 30 27 25 23 20 17 15 14 15 16 17 19 20 21 22 22 23 23 24 25 26 26 27 27 29 30 32 32 33 34 35 35 36 36 36 37 38 38 39 39 39 39 39 38 37 35 32 32 32 31 29 27 26 25 26 26 25 24 24 24 24 25 26 28 29
39 38 37 35 34 33 31 28 25 24 25 25 25 26 28 28 28 29 30 30 29 26 22 20 17 15 14 13 14 16 17 18 18 19 19 20 21 21 22 23 24 25 26 28 29 31 32 33 33 33 33 33 33 33 33 33 33 34 35 35 35 36 36 35 32 31 31 31 30 30 30 30 28 27 26 25 23 22 23 24 24 25 25 26 27
37 34 32 30 29 29 28 25 25 25 27 27 26 27 30 30 30 30 30 28 26 21 16 14 13 13 13 13 14 15 15 16 16 16 17 18 19 20 21 23 24 26 28 29 30 31 32 33 33 33 33 32 31 30 30 30 30 31 31 32 32 32 32 31 30 29 29 29 29 29 29 28 26 24 23 22 21 22 23 25 25 25 25 25 26
30 29 27 27 27 26 24 25 26 26 29 30 28 27 28 29 30 31 29 25 20 16 13 12 12 12 12 13 13 13 13 13 14 14 15 16 17 19 21 23 25 27 28 29 31 33 33 34 34 34 33 32 30 29 29 29 28 28 28 28 28 28 28 29 29 28 28 28 29 29 28 26 24 22 21 20 21 22 24 25 26 26 26 26 26
27 28 28 27 25 22 24 27 28 27 26 26 24 23 24 24 24 22 19 17 14 13 12 12 11 11 11 11 11 11 11 11 12 12 13 15 17 19 22 24 26 28 29 30 32 34 34 35 34 33 32 31 29 29 28 27 26 25 24 24 24 24 25 26 26 26 26 26 27 27 27 25 23 22 21 22 23 24 25 26 27 27 27 27 27
26 25 25 23 22 25 28 29 27 24 22 21 21 22 23 22 19 15 12 12 12 11 11 11 11 11 10 10 10 10 10 10 10 11 13 15 17 19 22 24 26 28 29 31 33 35 36 36 35 33 32 30 29 29 28 26 25 23 22 21 20 20 21 23 23 24 25 25 25 25 25 24 23 23 24 25 26 27 28 28 28 27 26 26 26
22 20 21 24 26 29 29 27 25 24 23 23 24 23 22 20 18 15 13 13 12 11 11 10 10 9 9 8 9 9 9 9 10 11 13 16 18 20 22 24 26 29 31 33 35 37 37 37 35 33 31 30 29 29 28 26 23 21 20 19 17 17 18 19 20 21 21 22 23 23 23 22 23 24 26 27 28 29 29 29 29 28 27 25 25
19 20 23 26 28 30 31 30 28 26 25 25 24 22 19 17 16 15 14 13 11 10 10 9 9 8 7 7 7 7 8 9 11 12 14 16 18 20 23 25 28 31 33 34 36 37 38 37 35 33 31 30 30 30 28 25 22 20 19 18 16 14 14 16 17 18 19 20 21 21 20 21 22 24 26 27 27 27 27 29 29 29 26 25 24
22 23 24 28 33 35 33 30 26 25 25 24 22 20 18 18 17 15 14 12 10 9 9 8 7 7 6 6 5 6 7 9 11 12 14 16 19 21 24 27 29 32 33 34 36 37 38 37 35 33 32 31 30 29 27 25 22 21 19 18 16 14 12 12 14 15 16 15 15 14 14 15 18 21 22 23 23 23 23 23 24 24 23 22 22
26 27 29 33 34 31 27 25 25 25 24 23 22 20 19 18 17 15 12 10 9 8 7 6 5 5 4 4 5 6 8 10 11 13 15 17 20 22 24 27 30 31 33 34 36 37 37 36 35 33 32 30 29 29 28 25 23 22 20 19 17 14 10 9 8 8 8 7 7 8 10 13 16 19 20 21 21 20 20 20 20 19 19 19 20
31 32 32 32 30 27 26 26 25 24 23 23 22 21 19 18 15 12 9 7 7 6 5 4 4 3 3 3 5 6 8 9 11 13 15 17 19 22 24 27 29 31 32 33 35 36 36 35 34 32 31 30 29 29 28 26 24 23 21 20 18 14 9 5 3 3 3 5 7 10 12 15 17 19 19 19 19 18 17 17 17 16 17 17 17
32 32 31 30 29 28 27 25 24 23 24 23 22 20 18 15 12 9 6 5 4 4 4 3 3 3 3 3 4 5 7 10 12 14 15 17 19 22 25 27 29 31 32 33 35 36 36 35 33 31 30 29 28 28 28 27 25 23 22 20 17 13 7 3 2 2 3 6 8 10 13 15 15 13 11 12 13 14 15 15 15 15 15 15 13
31 31 30 29 27 25 24 23 23 23 22 21 20 18 15 12 9 6 4 3 2 2 2 3 3 3 3 3 4 5 8 10 11 13 15 17 19 22 24 27 29 30 31 33 34 35 35 34 33 31 29 28 28 28 28 27 26 24 22 20 17 12 6 2 1 2 3 4 6 9 13 15 13 10 8 9 11 12 12 12 12 12 12 11 9
28 27 26 25 25 23 22 22 22 21 20 19 17 14 11 8 6 4 2 2 1 2 2 3 3 3 3 3 4 6 8 10 12 14 15 18 20 22 24 26 28 29 30 32 33 33 33 32 31 29 28 27 28 29 29 28 27 25 23 20 17 12 6 1 1 1 1 3 5 8 12 14 11 8 6 6 6 5 4 4 6 7 8 7 8
24 23 22 22 22 22 21 20 20 19 18 16 13 11 8 6 4 3 3 2 1 2 3 3 3 3 3 4 6 7 9 10 12 14 16 17 19 21 23 25 27 28 29 30 31 30 31 31 29 28 27 28 29 29 29 28 27 25 23 20 17 12 7 1 2 2 2 3 4 8 10 9 7 4 2 1 1 1 2 2 3 4 6 9 12
20 19 19 20 21 21 20 19 18 17 15 13 11 9 7 5 5 4 4 2 2 2 2 2 2 3 5 7 7 8 10 11 13 15 16 17 19 21 22 25 26 27 28 29 29 29 29 29 28 27 27 28 29 30 29 27 26 24 22 20 17 13 8 3 0 2 3 3 4 8 7 3 2 3 4 4 4 3 4 4 4 6 12 16 16
17 17 17 18 18 18 17 16 15 14 12 10 9 7 6 6 6 5 4 3 2 1 1 3 4 6 7 8 9 10 11 12 14 15 16 17 18 20 22 24 26 26 27 27 27 27 28 28 27 27 27 28 30 30 30 28 26 23 21 20 17 14 9 5 2 2 4 5 3 8 8 2 3 2 4 6 5 5 6 7 8 12 18 18 13
16 17 16 16 16 16 15 14 13 11 10 8 8 8 8 8 7 6 5 4 3 2 3 4 6 7 8 10 11 12 13 13 14 15 17 18 18 19 21 23 25 25 26 26 27 27 27 27 26 26 27 29 30 31 31 29 27 25 22 19 17 13 10 6 3 4 5 5 5 6 9 5 3 5 2 3 4 4 6 8 12 17 19 14 9
16 17 17 16 15 14 14 12 11 10 10 9 9 9 9 9 8 7 6 4 4 4 4 5 6 7 9 10 11 13 14 15 15 16 17 18 19 19 20 22 24 25 25 25 26 26 27 27 26 26 27 29 31 32 32 31 29 27 24 21 19 15 11 7 4 4 6 6 6 7 8 8 4 5 6 4 3 4 5 7 11 15 16 12 8
15 16 17 17 16 14 13 12 12 11 11 10 10 10 10 9 8 6 5 4 3 3 4 4 5 7 9 10 12 13 14 15 16 17 18 19 19 19 20 22 24 24 24 24 25 26 26 26 25 25 27 30 31 32 33 33 32 30 27 24 21 18 14 10 7 5 5 6 7 8 8 8 7 4 4 7 7 6 6 8 10 13 14 13 12
11 13 15 16 16 15 14 14 13 13 12 12 11 10 9 8 6 5 3 2 2 2 3 4 5 7 9 10 12 13 14 15 16 17 18 19 18 19 19 21 23 24 23 23 24 25 25 26 25 24 26 29 31 32 33 34 34 34 31 28 23 20 16 13 10 7 5 5 7 8 8 7 7 7 3 4 8 8 7 7 9 11 12 12 14
9 10 12 13 14 15 15 15 14 14 13 12 11 10 8 7 5 4 2 1 1 2 3 4 6 7 8 10 11 13 14 15 16 17 19 19 19 19 19 20 22 23 23 22 23 24 24 25 26 25 25 28 30 32 33 34 35 35 34 31 27 23 19 15 12 10 7 5 6 7 7 5 5 6 5 1 4 6 7 7 8 9 10 10 10
Wind_Direction
213 219 226 230 228 225 232 238 239 242 245 247 248 249 253 259 263 266 268 270 271 270 269 273 279 285 291 297 301 305 310 316 324 331 337 342 339 336 334 332 329 323 316 309 304 299 296 293 290 288 287 285 283 280 278 277 277 277 277 279 281 283 283 281 279 278 278 278 278 277 274 271 270 270 269 268 267 266 265 264 263 263 264 266 268
220 225 229 230 227 225 229 233 234 234 237 244 248 247 249 254 259 263 266 269 271 272 271 270 271 275 278 283 288 291 295 299 303 307 312 318 321 321 321 323 323 322 319 315 309 303 298 293 290 288 286 284 281 279 277 275 274 273 272 274 277 281 284 285 282 280 280 280 281 281 278 274 271 271 271 270 271 271 271 271 270 269 268 267 269
229 234 237 234 228 225 226 229 232 233 233 239 244 246 249 254 258 261 265 267 269 270 271 271 269 270 270 273 278 282 286 290 293 296 299 303 306 309 311 312 313 314 313 312 310 307 302 297 292 288 285 283 281 280 279 278 278 278 277 278 279 280 282 284 285 284 284 284 283 283 281 277 273 272 271 271 272 273 273 274 274 273 272 270 269
235 239 240 236 231 230 231 231 233 233 232 234 237 240 243 248 255 259 261 264 267 268 270 270 269 267 267 268 271 275 279 283 287 290 293 295 297 299 301 303 306 308 308 307 306 305 304 301 297 291 286 282 279 277 277 277 277 278 279 280 281 282 282 283 284 284 285 284 284 282 281 279 276 273 272 272 272 272 272 273 273 274 273 272 270
233 237 235 232 231 234 235 236 239 242 242 239 239 241 241 241 246 251 255 259 263 266 268 268 267 266 266 265 266 270 276 280 283 286 290 292 294 294 296 298 300 302 303 302 302 302 301 301 299 296 292 287 282 277 275 275 275 275 276 277 279 280 281 281 282 283 285 286 285 283 281 280 277 275 274 273 272 272 272 271 272 273 273 273 273
223 226 227 225 228 235 239 244 252 257 259 257 255 255 253 249 246 248 253 257 260 262 265 266 266 266 265 262 262 266 272 277 279 281 285 289 290 291 293 295 297 298 298 298 299 300 299 299 298 298 296 293 289 283 279 275 274 273 273 274 275 277 278 278 279 280 282 284 285 285 283 281 278 276 275 274 273 272 272 271 270 270 271 271 272
230 232 236 235 232 235 241 247 253 256 261 268 270 269 268 264 260 260 259 256 256 257 260 262 264 265 264 263 262 264 267 270 275 279 282 285 287 288 289 292 293 294 294 294 295 297 298 298 298 297 296 296 294 291 286 281 277 275 273 273 273 273 275 276 276 276 277 279 281 283 283 283 282 280 277 274 273 272 271 271 270 270 270 270 271
248 252 259 259 251 246 248 252 255 256 258 263 267 268 269 270 270 270 265 259 257 255 255 257 260 262 265 265 263 264 265 267 272 275 278 282 286 287 287 290 291 291 291 291 292 294 295 296 297 296 295 293 294 293 291 287 282 280 277 275 274 273 273 274 274 274 274 274 275 277 279 281 282 283 282 280 277 274 271 271 271 271 271 271 271
240 242 249 254 254 251 250 253 255 255 255 259 261 263 264 264 266 270 269 266 261 256 256 259 258 257 261 264 265 267 268 269 271 273 276 281 285 287 288 290 291 290 289 288 290 292 292 292 294 295 293 290 290 290 290 288 285 282 281 279 278 277 275 275 275 275 275 275 275 276 278 278 280 281 282 282 282 280 276 273 271 271 271 272 272
244 245 244 245 246 244 243 245 248 251 255 259 261 262 265 266 266 268 270 270 266 261 261 263 259 253 254 259 264 267 270 271 271 272 275 280 284 287 289 290 290 290 288 286 287 289 289 288 290 292 291 288 286 286 287 287 285 283 282 281 279 279 279 278 278 278 278 278 279 280 281 282 283 282 280 279 280 280 280 278 276 274 272 272 273
258 258 257 256 255 254 253 253 254 257 262 265 267 267 269 271 272 271 271 270 269 269 268 266 260 255 255 259 261 262 265 269 270 270 272 278 283 287 288 288 289 289 287 285 285 286 286 284 284 288 290 287 284 283 282 281 282 282 281 281 280 280 280 279 280 280 280 281 282 283 284 286 287 286 284 281 278 277 278 279 279 278 276 274 273
258 259 260 261 261 261 262 262 262 264 266 268 270 270 271 273 274 274 272 269 267 268 269 267 261 258 259 262 262 260 258 261 265 266 268 274 282 286 287 286 286 286 285 284 284 286 286 283 281 285 290 288 285 284 282 280 280 279 279 279 279 279 279 279 280 280 281 282 282 283 285 287 287 287 286 285 283 279 277 277 278 278 277 276 275
253 256 259 261 262 262 263 264 264 264 264 265 267 268 270 272 273 273 273 271 266 263 265 267 265 261 260 262 263 261 257 257 260 262 266 275 282 285 286 284 282 283 284 285 285 287 288 285 283 286 289 287 284 284 284 283 282 281 279 278 277 277 278 278 279 280 281 282 283 284 285 285 286 286 286 286 285 283 281 279 278 278 277 277 277
254 256 257 259 261 262 263 264 265 265 266 267 268 269 270 270 271 271 271 271 269 265 263 266 266 265 263 260 260 260 259 259 262 265 270 277 282 284 282 280 281 284 284 284 285 288 289 288 287 288 287 286 285 285 285 284 283 282 281 280 279 278 277 277 278 279 280 281 282 283 283 283 283 284 284 284 284 284 283 282 281 280 278 277 278
258 260 261 261 263 264 265 267 268 269 270 271 272 272 272 271 270 269 268 268 268 267 265 265 265 266 265 260 258 259 258 259 262 265 270 276 279 278 276 277 282 284 283 284 287 290 290 290 288 286 284 284 285 286 286 286 285 283 282 282 281 280 279 279 280 282 282 282 282 282 281 281 280 280 281 281 281 281 281 282 282 280 279 279 279
261 264 266 267 267 267 268 270 271 272 273 274 275 276 276 275 271 268 266 265 265 266 266 266 265 264 262 257 257 258 258 259 262 266 270 274 273 272 274 278 281 282 283 287 290 289 289 288 286 285 284 285 285 285 286 286 285 283 282 282 281 280 280 280 281 283 283 283 283 282 282 282 281 279 279 278 277 278 278 279 279 279 278 278 278
264 267 269 269 269 270 271 272 274 276 277 278 280 280 279 278 275 271 268 265 263 264 264 264 264 264 261 255 253 254 255 257 260 263 267 269 268 270 275 279 280 281 284 288 289 288 287 287 286 286 285 285 285 285 286 285 284 282 281 280 280 280 280 280 281 282 281 280 279 280 281 282 281 281 281 279 278 277 276 277 277 278 278 278 277
269 271 272 272 272 273 274 275 276 278 281 283 285 284 283 280 275 272 269 267 264 262 261 262 263 263 261 255 252 253 254 255 257 260 262 262 265 271 276 280 282 284 286 288 288 288 288 287 286 285 285 285 285 286 286 286 284 283 281 280 280 279 279 280 280 279 278 278 278 278 279 279 279 279 279 278 277 276 276 277 277 276 276 277 277
274 277 277 277 277 278 278 278 280 282 284 286 287 287 285 281 276 272 271 270 267 262 259 259 258 258 256 253 251 253 255 256 257 258 257 259 267 275 279 282 285 286 287 287 288 288 288 288 288 287 285 285 285 286 286 284 284 284 284 283 282 281 281 280 279 278 278 278 279 279 280 280 279 277 275 273 272 272 273 274 274 274 274 275 275
277 278 280 281 281 282 281 281 282 284 285 287 288 288 285 280 275 272 270 270 268 264 260 257 254 251 251 251 251 252 254 257 257 255 257 265 275 280 282 283 285 285 286 287 288 288 289 289 290 289 288 287 287 286 284 283 283 283 283 283 283 283 282 281 280 280 280 280 280 281 281 281 279 277 275 274 273 272 271 270 269 269 271 271 271
278 278 281 282 282 282 281 282 283 284 285 286 287 286 284 279 275 272 268 266 266 264 260 256 252 248 247 249 249 250 253 256 255 255 263 275 279 278 280 282 283 285 287 288 289 290 290 290 290 289 289 289 289 288 286 285 284 283 283 283 283 283 282 281 281 281 281 281 282 282 281 280 279 279 278 278 277 275 273 271 269 268 268 268 268
278 278 279 280 281 280 280 281 283 282 282 282 282 281 280 277 274 270 264 260 262 262 257 251 246 244 245 245 244 247 252 255 254 259 269 274 273 274 278 282 284 287 288 289 290 290 290 291 290 290 290 290 290 289 288 288 287 285 284 284 283 282 282 281 281 282 282 283 283 282 282 282 282 281 281 279 277 275 273 273 272 271 270 268 267
277 278 278 278 278 277 277 279 279 276 274 275 276 275 274 271 269 266 260 257 259 258 250 243 241 242 241 239 239 244 250 252 254 260 265 266 268 274 280 283 286 288 288 289 290 290 290 291 291 291 292 291 291 291 290 289 288 287 287 286 285 284 283 283 283 284 284 284 284 284 285 284 284 283 282 280 278 276 275 274 273 272 271 270 268
275 275 276 276 276 276 276 275 273 269 266 267 270 270 267 265 264 261 255 251 253 252 245 240 239 239 236 235 238 243 246 248 252 257 260 264 270 277 281 283 286 287 289 290 291 292 292 293 294 294 294 293 293 293 292 291 291 290 289 288 288 287 286 286 286 286 286 286 286 286 286 285 284 283 282 281 279 278 276 275 273 272 271 270 268
272 272 274 275 275 276 276 272 268 264 261 263 267 267 263 258 256 253 248 244 246 248 244 236 233 233 232 232 235 239 242 246 251 256 263 269 274 278 282 285 288 290 291 293 294 294 295 295 295 294 294 293 293 292 291 291 290 289 288 287 287 286 286 285 286 286 286 286 286 286 285 285 284 283 282 281 279 278 276 274 273 272 271 270 268
270 271 273 274 274 274 273 270 266 263 259 260 265 263 256 252 250 247 243 240 241 244 240 230 225 225 226 226 229 235 241 248 256 264 271 274 277 281 284 288 291 293 294 295 295 295 294 294 293 292 292 291 290 289 289 288 287 287 286 286 285 285 284 284 284 284 284 285 285 285 285 285 286 285 283 280 278 276 274 273 272 271 270 270 268
270 271 272 271 271 272 272 270 267 263 260 259 259 255 250 248 247 244 241 241 242 240 233 223 217 218 219 222 229 238 247 258 268 274 277 280 284 287 289 291 293 294 294 294 294 294 294 293 293 292 291 290 289 288 287 287 286 285 285 284 283 283 283 283 283 284 284 284 284 284 286 288 287 284 280 277 275 272 270 270 271 270 269 270 269
269 269 268 269 270 271 270 269 266 262 256 250 247 244 243 243 245 245 242 239 237 233 225 216 211 213 216 224 235 247 259 267 272 277 282 285 288 290 291 293 294 294 295 295 295 295 295 295 295 295 294 292 291 290 289 288 287 286 285 285 284 283 284 284 284 284 284 283 284 287 290 289 285 279 275 273 271 270 269 268 269 269 268 268 267
269 268 267 267 267 266 266 268 266 257 245 238 235 235 236 239 242 242 235 226 220 219 216 212 211 215 222 233 245 256 266 270 274 280 283 285 287 288 291 293 294 296 297 297 298 299 300 301 302 302 300 298 296 293 291 289 288 287 286 285 285 285 285 284 284 283 282 283 287 290 290 287 281 276 273 271 271 271 271 269 268 267 267 267 267
268 267 266 265 263 263 265 266 259 244 230 228 229 228 230 234 232 225 218 213 209 211 214 215 217 223 231 242 251 260 267 272 276 280 281 283 286 290 293 297 300 301 303 305 308 310 312 312 311 309 306 303 299 296 293 291 290 289 288 287 286 285 284 283 281 280 280 283 287 287 285 283 279 274 272 273 274 273 271 270 269 268 268 269 269
266 265 265 264 260 261 261 253 237 224 219 221 225 226 227 227 221 211 207 207 206 206 209 211 216 226 236 246 256 264 269 272 275 278 281 286 290 295 301 305 308 312 315 318 320 321 321 320 318 315 312 307 303 299 296 294 293 291 290 288 285 282 280 278 276 276 279 281 282 281 281 280 275 270 269 270 270 268 267 268 270 271 272 272 272
263 260 258 255 254 256 250 229 214 214 216 216 219 222 222 220 214 207 204 203 202 202 203 207 216 229 241 250 257 262 264 268 273 278 284 291 298 304 311 316 322 325 325 325 326 327 327 326 324 321 318 313 309 305 302 300 298 294 291 287 282 278 275 273 271 272 277 277 276 277 278 275 269 264 262 261 262 265 266 267 269 271 273 274 275
252 249 246 246 249 248 231 209 206 215 217 212 210 213 215 213 207 201 197 195 193 196 203 212 222 233 241 247 251 254 259 266 274 283 292 300 307 313 320 327 330 330 328 329 331 333 333 331 330 327 324 320 316 312 309 306 302 297 292 288 283 276 272 269 268 270 273 273 272 274 275 270 261 256 255 256 260 265 267 268 269 271 273 274 276
240 240 240 242 241 227 207 202 208 211 209 207 205 206 206 203 197 191 187 182 181 191 205 214 222 228 232 237 244 251 260 271 283 294 303 310 315 321 328 332 333 332 332 334 336 336 336 336 334 331 328 324 321 319 316 313 308 302 296 290 284 277 271 267 266 268 271 270 268 269 271 267 257 251 251 254 257 263 267 268 269 270 272 275 276
233 235 234 227 213 199 197 203 203 196 195 200 198 190 186 180 173 169 171 175 182 194 203 207 212 217 223 233 244 257 269 280 293 305 312 317 323 327 331 332 333 334 336 338 339 340 340 339 337 334 331 329 327 326 323 320 315 310 304 297 288 278 270 266 266 268 270 270 268 268 269 262 251 248 251 254 259 265 266 266 267 270 271 272 272
228 222 208 194 189 191 194 192 185 182 188 191 183 173 167 162 158 160 168 176 183 190 194 199 208 218 228 241 253 266 279 292 305 316 321 325 328 329 330 332 336 339 342 343 343 343 341 339 338 337 335 333 332 331 329 325 321 316 312 307 300 287 274 268 267 269 271 271 270 270 266 256 248 248 255 260 264 265 264 263 266 269 269 267 268
195 186 179 179 182 183 180 176 174 177 180 175 167 160 154 151 153 159 166 172 178 184 192 204 216 227 240 254 266 280 298 312 320 323 325 328 329 330 333 338 342 345 346 346 345 343 341 340 340 339 339 337 336 334 332 329 325 321 319 317 314 302 286 275 271 272 274 273 271 268 263 253 249 253 260 264 267 268 266 265 264 265 266 265 265
167 168 170 173 172 170 167 165 165 167 166 159 150 146 144 147 153 159 164 170 177 187 202 215 225 236 249 263 282 307 322 325 323 323 327 330 333 336 340 344 346 347 348 347 345 343 341 341 341 342 341 340 338 337 335 333 330 327 326 325 324 316 300 285 277 276 277 276 273 269 263 258 259 263 267 271 273 271 268 265 264 263 262 260 260
152 152 153 154 154 154 153 154 156 157 153 145 140 142 146 151 155 158 163 171 183 195 208 218 227 242 259 284 314 327 328 325 324 327 332 334 337 340 343 346 348 349 349 348 346 343 342 343 344 344 343 341 340 340 338 337 335 334 332 331 331 327 316 301 288 283 284 287 292 292 288 283 280 277 276 277 275 269 263 262 262 259 256 255 256
137 137 138 140 142 145 148 150 150 147 141 138 141 146 149 150 152 155 161 171 184 195 203 211 223 244 272 309 323 323 325 328 330 333 335 336 338 342 345 347 349 350 350 349 346 345 345 346 347 346 345 343 342 341 341 341 341 339 337 336 336 333 330 324 314 309 323 331 327 317 308 300 293 285 277 272 268 263 261 259 255 250 251 251 247
129 132 135 138 140 143 144 143 140 138 139 142 145 147 148 148 148 150 156 168 185 198 207 223 243 262 282 300 308 317 328 334 335 335 335 338 342 346 347 349 350 352 352 350 348 347 349 350 350 349 346 344 343 344 346 346 344 342 342 341 339 336 336 344 359 357 351 341 329 320 315 312 307 296 281 270 263 259 258 255 249 246 243 236 226
124 128 132 133 134 135 136 137 138 140 142 144 145 146 148 147 143 143 152 174 195 216 241 260 270 274 278 289 311 331 338 339 337 337 339 342 347 350 349 350 352 354 353 351 350 351 353 354 354 350 347 347 348 350 351 349 347 346 346 345 342 341 342 350 12 13 4 344 329 328 331 327 318 301 284 276 268 258 252 247 239 232 225 216 215
120 123 125 126 129 135 137 138 139 140 141 142 145 146 146 143 142 148 159 168 202 249 262 266 267 270 283 314 342 349 344 339 340 343 345 346 348 350 351 352 354 356 354 353 353 354 356 358 357 352 351 353 355 356 356 352 348 348 348 347 347 347 347 342 152 111 352 331 334 344 344 336 322 304 294 289 274 250 232 219 208 206 209 210 205
120 122 122 125 133 141 142 139 137 137 138 140 144 146 145 146 146 146 143 149 201 238 248 257 269 290 324 351 359 353 345 343 346 350 350 348 348 350 352 354 356 357 357 356 356 356 358 1 359 356 357 1 1 359 358 355 351 349 349 349 351 353 351 342 168 186 263 304 336 345 342 335 329 330 345 357 16 76 114 141 173 192 191 177 163
120 124 128 135 143 147 144 138 137 138 139 142 145 145 144 144 140 134 134 150 189 218 244 288 321 340 351 356 357 353 349 349 351 352 351 348 348 350 353 355 358 360 359 358 358 358 1 3 1 359 3 7 5 2 1 359 356 354 351 350 352 356 358 6 145 236 254 265 327 341 337 326 347 36 77 108 109 109 135 153 165 167 163 157 151
125 131 137 144 147 146 141 139 139 140 140 140 140 138 138 137 134 128 128 137 153 152 20 7 1 358 354 352 351 352 351 351 352 352 351 349 349 351 354 357 0 2 1 0 360 1 4 5 3 3 8 12 10 7 5 4 2 1 357 354 354 358 2 11 12 285 260 240 280 340 349 344 185 146 88 102 113 126 139 148 158 161 158 152 143
134 140 145 150 150 147 144 144 143 142 140 139 139 139 139 136 130 124 124 124 107 70 45 24 8 360 354 350 349 349 350 351 352 351 350 349 350 353 356 359 2 3 3 2 1 3 6 7 6 7 13 16 15 12 11 10 10 9 5 1 2 5 8 8 351 309 286 255 254 318 347 349 227 216 197 110 108 126 137 143 156 165 166 161 147
144 148 152 155 156 153 149 148 147 146 147 147 146 143 141 137 133 130 125 114 95 73 52 28 11 2 355 351 349 349 348 348 350 351 350 350 352 354 357 0 4 6 5 4 3 5 8 9 9 12 17 21 20 17 16 16 17 16 13 10 9 13 15 9 346 317 305 287 269 289 328 347 330 239 225 210 177 165 166 165 168 174 179 182 180
151 156 159 160 160 158 155 155 155 155 154 152 150 148 147 145 141 137 129 115 92 68 45 22 6 358 354 352 351 349 347 346 348 349 350 351 352 354 357 1 5 6 6 6 6 8 10 11 13 17 22 25 24 21 20 20 22 22 21 17 13 13 16 15 4 342 315 296 285 288 311 342 360 346 241 215 199 185 184 188 189 189 194 202 204
156 163 164 163 162 162 162 162 162 160 158 157 156 155 154 152 148 142 133 116 70 36 20 1 351 351 353 353 352 349 348 347 346 346 348 350 352 354 357 2 5 6 7 8 9 10 10 12 15 21 26 29 28 25 23 24 25 26 25 22 18 15 17 19 15 4 337 298 289 297 310 330 356 4 346 217 206 205 209 211 206 201 203 212 216
160 167 170 168 165 164 164 164 163 163 163 163 163 163 161 158 155 150 139 103 358 346 340 339 342 344 346 348 350 350 348 346 345 344 345 348 351 353 357 2 5 5 6 9 11 11 11 12 15 21 28 31 31 29 27 27 28 28 28 26 24 22 21 22 21 17 7 333 300 301 312 324 340 356 12 90 191 208 216 215 212 210 210 211 209